SCP
1 2 3 2 1 2 2 2 2 2 2 2 2 2 2 1 1 1 1 1 1 1 1 1 1 1 2 3 3 4 4 3 2 1 1 1 1 1 1 1 0 0 0
1 2 2 2 1 1 2 2 2 2 2 2 2 2 2 1 1 1 1 1 1 1 1 1 1 1 2 2 3 4 4 3 2 1 1 1 1 1 1 1 1 0 0
1 1 2 2 1 1 2 2 2 2 2 2 2 2 2 1 1 1 1 1 1 1 1 1 1 1 1 2 3 4 4 3 2 1 1 1 1 1 1 1 1 1 0
1 1 1 2 2 1 2 2 3 3 3 2 2 2 2 1 1 1 1 1 1 2 2 1 1 1 1 2 3 4 3 3 2 1 1 1 1 1 1 1 1 1 1
1 1 1 2 2 2 2 3 3 3 3 2 2 2 2 2 2 1 1 1 1 2 2 1 1 1 1 2 3 4 3 2 1 1 1 1 1 1 1 1 1 1 1
1 1 1 1 2 2 3 3 3 3 2 2 2 1 2 2 2 2 1 1 1 1 1 1 1 1 2 2 3 3 3 2 1 1 1 1 1 1 1 1 1 1 1
1 1 1 1 2 3 3 4 3 3 2 1 1 1 2 3 2 2 1 1 1 1 1 1 1 2 2 2 3 3 2 2 1 1 1 2 2 1 1 1 1 1 1
2 1 1 1 2 3 4 4 3 3 2 1 1 2 3 3 2 2 1 1 1 1 2 2 2 2 2 3 3 3 2 1 1 1 2 2 2 1 1 1 1 1 0
2 2 1 2 3 3 4 3 3 2 2 2 2 3 3 3 2 2 1 1 1 2 2 1 1 2 2 2 3 2 2 1 1 1 2 2 2 1 1 1 1 0 0
2 1 1 2 2 3 3 3 2 2 2 2 2 3 2 2 2 1 1 1 1 2 1 1 1 1 1 2 2 2 1 1 1 1 2 2 2 1 1 1 1 1 1
2 1 1 1 1 2 2 2 2 1 1 2 2 2 2 1 1 1 1 1 1 1 1 1 1 1 1 1 1 1 1 1 1 1 2 2 2 2 1 1 1 1 1
1 1 1 1 1 1 1 1 1 1 1 1 1 1 1 1 0 1 1 1 1 1 1 1 1 1 1 1 1 1 0 0 1 1 1 2 2 2 1 1 1 1 1
1 1 1 1 1 2 1 1 1 1 1 1 0 0 0 0 0 0 0 1 1 1 1 1 1 1 0 0 0 0 0 0 1 1 1 2 2 2 1 1 1 1 1
1 1 1 2 2 2 1 1 1 1 1 1 0 0 0 0 0 0 0 0 0 0 0 0 0 0 0 0 0 0 0 0 1 1 1 2 2 1 1 1 1 1 1
1 1 1 2 2 1 1 1 1 1 1 1 1 0 0 0 0 0 0 0 0 0 0 0 0 0 0 0 0 0 0 1 1 1 1 1 2 1 1 1 1 1 1
1 1 1 1 1 1 1 1 1 1 1 1 1 0 0 0 0 0 0 0 0 0 1 1 1 1 1 1 1 1 1 1 1 1 1 1 1 1 1 1 1 1 1
1 1 1 1 1 1 1 1 1 1 1 1 0 0 0 0 1 1 1 1 1 1 1 1 1 1 1 1 1 1 1 1 2 1 1 1 1 2 2 1 1 1 1
1 1 1 1 1 1 1 1 1 1 1 1 0 0 0 1 1 1 1 1 1 1 1 1 1 1 1 2 2 2 2 2 2 2 2 2 2 2 1 1 1 1 1
1 1 1 2 1 1 1 1 1 1 1 1 1 1 1 1 1 1 1 1 1 1 1 1 1 2 2 2 2 2 2 3 3 3 3 3 2 2 1 1 1 1 1
1 1 2 2 1 1 1 1 1 1 1 1 1 1 1 1 1 1 1 1 1 1 1 2 2 2 3 3 3 2 2 3 3 3 3 3 2 2 1 1 1 1 1
1 1 2 2 1 1 1 1 1 1 1 1 1 1 1 1 1 1 1 1 1 1 2 2 2 3 3 3 2 2 2 2 2 2 2 2 2 2 1 1 1 1 1
2 2 2 2 1 1 1 1 1 1 1 1 1 1 1 1 1 1 1 1 1 1 2 2 2 2 2 2 2 2 2 2 1 1 2 2 2 1 1 1 1 1 1
2 2 2 2 1 1 1 1 1 1 1 1 1 1 1 1 1 1 1 1 1 1 1 2 2 2 1 1 2 2 2 2 1 1 1 1 1 1 1 1 1 1 1
2 2 2 2 1 1 1 1 1 0 1 1 1 1 1 1 1 1 1 1 1 1 1 1 1 1 1 1 1 1 2 2 2 1 1 1 0 1 1 1 1 1 1
3 3 2 2 2 2 1 1 0 0 1 1 1 1 1 1 1 1 1 1 1 1 1 1 1 1 1 1 1 1 1 1 1 1 1 1 0 0 0 1 1 1 1
3 3 3 3 2 2 1 1 0 0 1 1 1 0 0 0 0 1 1 1 1 1 1 1 1 1 1 1 1 1 1 1 1 1 1 1 0 0 0 1 1 1 1
Wind_Speed
1 1 7 9 11 12 13 13 13 13 13 13 14 14 15 16 16 16 17 17 18 18 19 20 20 19 19 19 19 19 18 17 16 16 16 16 15 15 15 15 14 10 15
3 3 9 10 11 12 13 13 13 13 13 14 14 14 15 15 16 16 17 18 18 19 20 20 20 20 19 19 19 18 17 16 15 15 15 14 15 14 14 14 13 9 14
4 3 7 11 11 12 13 13 13 13 13 13 14 14 15 15 15 16 17 18 18 19 20 20 19 19 19 18 18 17 16 15 14 14 13 7 9 13 13 14 14 14 13
4 4 8 13 12 13 13 13 13 13 13 14 14 14 14 15 16 17 17 18 18 19 19 19 18 18 18 17 17 16 15 14 14 13 7 5 6 12 13 13 13 13 12
4 4 9 14 13 13 13 13 13 14 14 14 14 14 14 15 16 16 17 17 18 18 18 18 17 17 17 16 15 14 13 13 13 10 6 5 5 11 12 12 12 12 12
5 6 10 15 14 13 13 13 13 14 14 14 14 14 15 15 16 16 17 16 17 17 17 17 16 16 15 14 13 12 12 12 10 6 6 5 5 10 12 11 11 11 11
6 5 9 14 13 13 13 13 13 14 14 14 15 14 15 15 15 16 16 16 16 16 15 15 14 14 13 13 12 11 10 11 6 5 5 5 5 10 11 10 10 10 10
8 6 7 13 13 13 13 13 13 13 14 14 14 15 15 14 14 15 15 15 15 14 13 13 12 12 11 11 10 9 9 8 7 6 5 4 8 10 10 10 9 10 10
7 6 5 6 8 12 13 13 12 12 13 13 13 13 13 13 13 13 13 13 13 13 12 12 11 10 9 9 8 8 8 8 5 4 6 4 9 11 10 10 9 9 9
6 6 5 4 4 5 6 11 12 12 12 12 12 12 12 12 12 11 11 11 12 12 11 10 10 9 8 7 7 7 8 7 4 4 3 5 11 11 11 10 10 9 9
6 4 4 5 4 4 4 8 9 10 10 9 8 10 9 4 5 5 8 10 10 10 10 9 8 7 6 5 5 7 6 3 3 3 3 7 11 11 10 10 10 9 9
6 5 4 4 4 4 5 4 3 3 4 3 2 3 3 3 3 5 7 9 9 9 8 7 6 5 3 2 3 4 2 4 3 3 4 10 10 11 11 10 10 9 9
8 7 6 5 5 4 3 3 2 1 2 2 3 3 3 2 2 2 2 3 3 4 3 3 2 1 1 2 2 2 3 3 2 2 4 10 10 11 11 10 9 9 9
7 7 7 6 5 4 4 3 3 2 2 2 3 4 3 2 2 2 2 1 1 1 1 1 1 1 1 2 2 3 3 3 2 2 4 10 10 11 11 10 10 9 9
6 6 6 6 5 4 4 3 4 3 3 3 3 3 4 3 3 3 2 2 2 2 2 2 2 2 2 2 2 4 3 4 4 4 3 10 10 10 11 10 10 10 9
7 7 6 6 6 5 3 3 3 3 3 3 3 4 4 4 4 3 2 2 2 2 2 2 3 2 2 2 2 3 3 3 4 4 3 6 10 10 10 10 10 10 10
8 7 6 6 5 5 4 4 4 3 3 3 3 4 4 4 4 3 3 2 1 2 2 2 2 2 2 2 2 2 2 3 4 4 4 3 4 9 10 10 9 10 10
8 7 7 7 5 4 4 3 3 3 3 3 3 3 4 4 4 3 2 2 2 2 2 2 2 2 1 1 1 1 2 2 4 4 4 4 4 4 7 11 10 9 10
9 8 7 6 6 4 4 3 3 3 3 3 3 3 3 4 4 3 2 2 2 2 1 2 2 2 2 1 1 1 1 2 3 4 5 6 5 5 4 7 10 10 10
9 8 7 6 6 5 3 2 2 2 2 2 3 3 4 3 4 4 3 3 2 2 2 2 2 1 1 2 1 0 1 2 2 3 5 5 5 6 5 5 5 7 10
8 8 7 7 6 4 3 2 2 2 2 2 2 4 4 4 4 4 3 3 3 3 3 3 2 2 1 1 2 1 2 2 2 3 3 3 4 5 5 5 4 4 4
10 9 8 8 7 5 4 3 3 2 2 2 2 3 4 4 4 4 4 3 3 2 2 2 2 1 1 2 2 1 1 3 2 2 2 3 4 3 5 6 5 5 4
10 10 9 8 7 6 5 3 2 2 1 1 1 1 2 4 4 3 4 3 3 3 3 3 3 3 2 1 1 3 2 2 2 2 2 1 2 2 3 3 5 5 5
12 10 9 8 8 6 6 5 5 3 3 3 2 2 2 3 3 3 3 3 3 3 3 3 3 3 3 2 1 1 2 3 2 2 2 1 2 3 3 4 4 5 5
12 11 9 8 7 6 6 6 5 3 3 2 2 2 2 2 2 3 3 3 3 3 3 3 3 3 3 3 2 1 0 0 1 2 2 2 2 2 3 3 3 3 4
11 10 10 9 8 7 7 6 6 5 4 3 3 3 2 1 1 2 3 3 3 3 3 3 3 3 3 3 2 2 2 2 2 2 2 2 2 3 2 2 3 3 3
Wind_Direction
49 84 93 88 88 89 89 88 88 89 90 90 90 93 95 97 102 110 117 118 120 124 127 127 127 127 126 126 126 128 128 125 125 125 126 126 125 124 124 124 121 119 122
149 126 107 101 98 96 94 92 91 91 92 92 93 95 98 100 102 110 114 115 117 122 125 126 125 125 124 125 128 128 127 126 126 126 124 125 124 125 126 126 126 128 128
128 131 122 112 106 101 98 96 94 93 93 95 95 97 101 103 105 110 113 116 118 120 121 123 124 125 126 127 129 130 130 128 127 124 119 113 122 126 129 130 130 131 130
123 136 130 118 112 106 102 100 98 96 95 96 98 99 102 106 107 110 114 117 119 121 122 124 126 128 129 130 130 130 131 132 130 127 116 118 123 128 130 132 134 135 133
101 115 129 121 115 110 106 102 100 99 98 98 99 101 105 108 108 109 113 116 118 120 122 124 126 128 129 131 132 131 131 130 131 125 117 115 118 132 134 135 137 137 137
101 107 122 119 116 112 108 105 104 103 101 101 102 103 107 109 110 111 113 117 119 121 122 124 126 128 129 131 133 132 132 131 121 119 121 123 129 139 139 141 141 142 142
116 109 120 122 120 115 111 108 107 107 106 105 106 106 108 111 112 115 117 119 120 122 123 125 128 129 131 133 135 135 136 136 120 123 128 130 140 146 146 147 146 145 146
129 124 124 126 125 120 116 113 113 111 110 109 109 110 109 109 111 119 121 123 124 124 125 128 130 133 134 136 136 135 137 141 132 135 134 141 152 152 152 152 149 149 152
129 125 122 128 127 126 122 118 119 116 114 115 116 115 114 114 115 120 123 127 128 129 130 131 134 135 134 133 134 133 137 140 127 135 147 149 154 152 153 153 154 157 159
130 130 128 125 121 125 127 127 125 123 123 124 124 123 123 122 122 124 129 134 136 135 135 138 140 141 142 142 138 134 137 134 130 139 139 155 158 160 162 164 164 161 163
134 142 139 137 134 133 138 138 133 131 131 130 127 127 123 114 118 125 140 147 147 145 145 147 148 152 150 141 136 135 134 129 135 138 146 163 165 167 170 170 168 166 167
152 157 155 152 150 152 152 137 138 140 139 132 127 127 119 127 137 139 146 154 153 152 152 158 165 165 151 131 137 137 128 137 141 151 166 167 170 172 174 174 175 176 177
162 163 169 167 162 161 146 147 154 147 147 150 151 146 139 130 133 127 129 148 147 152 150 163 166 151 149 154 145 142 148 148 153 164 166 169 175 178 176 178 181 183 186
149 154 162 162 157 156 147 154 158 150 154 156 157 155 143 135 138 142 143 156 152 153 162 165 153 159 163 174 165 152 154 150 155 154 176 179 184 182 181 186 188 189 190
146 150 150 147 148 146 143 160 155 160 160 158 153 156 150 142 142 147 156 156 160 156 156 156 157 157 164 167 164 153 150 155 163 168 181 183 183 185 187 191 194 195 194
153 152 146 141 146 143 141 150 155 156 151 143 144 149 146 144 146 146 150 154 166 172 168 158 156 160 166 153 153 157 160 167 173 175 181 188 192 192 194 197 199 198 198
157 153 150 145 138 136 138 144 147 153 147 148 152 150 148 145 146 146 147 155 166 163 147 129 124 128 137 136 139 167 170 175 180 183 181 188 195 200 201 202 202 204 206
149 149 154 148 138 137 134 132 136 149 152 157 155 149 152 154 153 146 149 159 153 128 123 124 122 114 123 135 160 188 181 181 186 183 185 192 194 201 206 205 207 209 213
153 151 151 141 144 143 138 132 132 138 150 159 154 154 160 158 156 151 159 161 145 123 130 152 126 132 139 154 186 202 200 197 195 190 194 203 201 200 203 210 212 213 217
156 153 150 147 153 147 130 112 103 115 144 152 157 166 167 162 159 156 162 165 154 141 144 141 139 128 156 184 187 240 257 231 211 202 202 203 203 204 202 209 210 220 221
153 153 151 152 159 147 135 134 132 159 171 167 174 172 169 167 162 157 160 157 160 162 174 166 146 134 157 143 97 6 327 285 236 223 209 201 206 203 194 201 205 208 223
164 163 159 162 165 162 159 156 157 162 173 177 183 173 176 173 169 167 165 172 176 166 168 164 148 142 192 158 139 110 351 336 314 245 222 210 211 196 202 204 203 204 211
170 171 169 168 167 168 159 142 134 102 70 81 151 188 190 178 175 174 176 178 180 174 185 190 170 159 183 228 167 151 158 233 296 315 275 226 203 203 210 206 207 206 207
179 173 167 168 168 171 163 155 155 160 172 191 186 183 186 183 181 180 175 176 175 172 183 198 179 170 162 193 250 211 187 177 173 299 316 293 231 212 213 211 208 211 210
177 173 171 169 171 172 170 169 167 173 180 177 160 156 173 188 190 182 176 175 181 183 188 188 178 177 171 176 195 211 199 194 163 169 268 296 299 247 221 210 205 212 211
175 174 173 173 178 177 175 175 176 179 179 171 174 176 187 192 201 200 189 188 191 190 191 188 184 181 185 184 192 188 182 189 206 184 222 253 266 268 239 219 214 213 212